Regional Weather Roundup
Issued by NWS

Home | Current Version | Previous Version | Graphics & Text | Print | Product List | Glossary On
Versions: 1 2 3 4 5 6 7 8 9 10 11 12 13 14 15 16 17 18 19 20 21 22 23 24 25 26 27 28 29 30 31 32 33 34 35 36 37 38 39 40 41 42 43 44 45 46 47 48 49 50
000
ASUS43 KLMK 021402
RWRKY
KENTUCKY REGIONAL WEATHER ROUNDUP
NATIONAL WEATHER SERVICE LOUISVILLE KY
1000 AM EDT TUE SEP 02 2014

NOTE "FAIR" INDICATES FEW OR NO CLOUDS BELOW 12,000 FEET
WITH NO SIGNIFICANT WEATHER AND/OR OBSTRUCTIONS TO VISIBILITY.

KYZ001>023-026-027-061>063-070>075-021500-
WESTERN AND SOUTH CENTRAL KENTUCKY

CITY           SKY/WX    TMP DP  RH WIND       PRES   REMARKS
PADUCAH        CLOUDY    81  74  79 SW12      29.97R
HENDERSON      CLOUDY    72  68  88 SE6       29.96F
OWENSBORO      CLOUDY    72  72 100 SE9       29.99F
HOPKINSVILLE   MOSUNNY   81  75  81 SW15      30.02R
BOWLING GREEN  CLOUDY    81  71  71 SW9       30.02F
GLASGOW        MOSUNNY   79  69  72 SW7       30.03F
$$

KYZ024-025-028>034-038-045-046-053-021500-
NORTH CENTRAL KENTUCKY

CITY           SKY/WX    TMP DP  RH WIND       PRES   REMARKS
LOUISVILLE/SDF LGT RAIN  70  68  93 SE7       29.99F FOG
LOUISVILLE/LOU LGT RAIN  69  67  93 SE6       29.99F
FORT KNOX      CLOUDY    70  70 100 E5        30.00S
$$

KYZ035>037-039>044-047>052-055>060-089>105-021500-
NORTHEAST KENTUCKY

CITY           SKY/WX    TMP DP  RH WIND       PRES   REMARKS
LEXINGTON      CLOUDY    77  70  79 W7        30.05R
COVINGTON      LGT RAIN  68  66  93 S12       29.97S
FRANKFORT      CLOUDY    72  67  84 W6        30.04R
$$

KYZ054-064>069-076>088-106>120-021500-
SOUTHEAST KENTUCKY

CITY           SKY/WX    TMP DP  RH WIND       PRES   REMARKS
JACKSON        MOSUNNY   78  70  76 CALM      30.07S
LONDON         MOSUNNY   81  69  67 SW10      30.09R
SOMERSET       CLOUDY    79  68  69 SW8       30.08S
MIDDLESBORO    MOSUNNY   78  71  76 S6        30.10F
MONTICELLO     MOSUNNY   80  72  76 SW12      30.09R
$$




USA.gov is the U.S. government's official web portal to all federal, state and local government web resources and services.